Location: Riverside Cemetery
(38.3047°N, 99.7773°W)
Time: 00:35:52
(UTC+00:00)

Cosmos 2322 Rocket - Pass Details

Date: 19 September 2020
Orbit: 831 x 852 km, 71.0° (Epoch: 23 October)

Event Time Altitude Azimuth Distance (km) Brightness Sun altitude
Exits shadow 11:04:12 - 199° (SSW) 2,786 4.6 -16.4°
Reaches altitude 10° 11:05:04 10° 199° (SSW) 2,451 4.3 -16.3°
Maximum altitude 11:10:43 86° 112° (ESE) 852 2.2 -15.2°
Drops below altitude 10° 11:16:25 10° 23° (NNE) 2,480 5.1 -14.1°
Sets 11:18:53 0° 23° (NNE) 3,421 5.9 -13.6°
